| time (UTC) | temp C | wind direction | speed KPH | gust KPH | rain 1hr cm | rain 24hr cm | rain mn cm | humidity % | barometer mb |
| 20260507021115 | 9 | 115 | 0.0 | 0.0 | 0.00 | 1.02 | 1.02 | 91 | 1018.6 |
| 20260507020613 | 10 | 115 | 0.0 | 0.0 | 0.00 | 1.02 | 1.02 | 90 | 1018.7 |
| 20260507020109 | 10 | 114 | 0.0 | 0.0 | 0.00 | 1.02 | 1.02 | 89 | 1018.4 |
| 20260507015608 | 10 | 115 | 0.0 | 0.0 | 0.00 | 1.02 | 1.02 | 88 | 1018.2 |
| 20260507015105 | 10 | 115 | 0.0 | 0.0 | 0.00 | 1.02 | 1.02 | 88 | 1018.2 |
| 20260507014601 | 10 | 114 | 0.0 | 0.0 | 0.00 | 1.02 | 1.02 | 88 | 1018.2 |
| 20260507014057 | 10 | 114 | 0.0 | 0.0 | 0.00 | 1.02 | 1.02 | 88 | 1018.1 |
| 20260507013554 | 11 | 114 | 0.0 | 0.0 | 0.00 | 1.02 | 1.02 | 87 | 1018.2 |
| 20260507013051 | 11 | 115 | 0.0 | 0.0 | 0.00 | 1.02 | 1.02 | 86 | 1018.1 |
| 20260507012548 | 11 | 115 | 0.0 | 0.0 | 0.00 | 1.02 | 1.02 | 85 | 1018.0 |
| 20260507012044 | 11 | 115 | 0.0 | 0.0 | 0.00 | 1.02 | 1.02 | 84 | 1018.2 |
| 20260507011542 | 11 | 115 | 0.0 | 0.0 | 0.00 | 1.02 | 1.02 | 80 | 1018.3 |
| 20260507011038 | 11 | 115 | 0.0 | 0.0 | 0.00 | 1.02 | 1.02 | 78 | 1018.1 |
| 20260507010532 | 11 | 115 | 0.0 | 0.0 | 0.00 | 1.02 | 1.02 | 78 | 1018.1 |
| 20260507010029 | 11 | 114 | 0.0 | 0.0 | 0.00 | 1.02 | 1.02 | 77 | 1018.0 |
| 20260507005527 | 12 | 114 | 0.0 | 0.0 | 0.00 | 1.02 | 1.02 | 75 | 1018.1 |
| 20260507005023 | 12 | 114 | 0.0 | 0.0 | 0.00 | 1.02 | 1.02 | 72 | 1018.1 |
| 20260507004520 | 13 | 115 | 0.0 | 0.0 | 0.00 | 1.02 | 1.02 | 72 | 1018.0 |
| 20260507004018 | 13 | 114 | 0.0 | 0.0 | 0.00 | 1.02 | 1.02 | 68 | 1017.8 |
| 20260507003513 | 13 | 114 | 0.0 | 0.0 | 0.00 | 1.02 | 1.02 | 69 | 1018.0 |
| 20260507003008 | 13 | 115 | 0.0 | 0.0 | 0.00 | 1.02 | 1.02 | 69 | 1018.0 |
| 20260507002505 | 14 | 115 | 0.0 | 0.0 | 0.00 | 1.02 | 1.02 | 68 | 1017.8 |
| 20260507002001 | 14 | 115 | 0.0 | 0.0 | 0.00 | 1.02 | 1.02 | 67 | 1017.9 |
| 20260507001457 | 15 | 113 | 0.0 | 1.6 | 0.00 | 1.02 | 1.02 | 64 | 1018.0 |
| 20260507000955 | 15 | 141 | 0.0 | 1.6 | 0.00 | 1.02 | 1.02 | 59 | 1017.9 |
| 20260507000451 | 15 | 158 | 0.0 | 1.6 | 0.00 | 1.02 | 1.02 | 63 | 1017.7 |
| 20260506235946 | 15 | 115 | 0.0 | 1.6 | 0.00 | 1.02 | 1.02 | 63 | 1017.7 |
| 20260506235444 | 15 | 51 | 1.6 | 1.6 | 0.00 | 1.02 | 1.02 | 62 | 1017.8 |
| 20260506234939 | 15 | 147 | 1.6 | 1.6 | 0.00 | 1.02 | 1.02 | 59 | 1017.7 |
| 20260506234437 | 15 | 118 | 0.0 | 3.2 | 0.00 | 1.02 | 1.02 | 57 | 1017.8 |
| 20260506233934 | 15 | 140 | 0.0 | 8.0 | 0.00 | 1.02 | 1.02 | 59 | 1017.5 |
| 20260506233431 | 15 | 336 | 6.4 | 11.3 | 0.00 | 1.02 | 1.02 | 55 | 1017.3 |
| 20260506232928 | 15 | 191 | 0.0 | 11.3 | 0.00 | 1.02 | 1.02 | 60 | 1017.7 |
| 20260506232424 | 15 | 113 | 0.0 | 3.2 | 0.00 | 1.02 | 1.02 | 62 | 1017.5 |
| 20260506231920 | 15 | 130 | 0.0 | 4.8 | 0.00 | 1.02 | 1.02 | 62 | 1017.7 |
| 20260506231418 | 15 | 114 | 1.6 | 1.6 | 0.00 | 1.02 | 1.02 | 69 | 1017.7 |
| 20260506230915 | 15 | 120 | 0.0 | 3.2 | 0.00 | 1.02 | 1.02 | 63 | 1017.8 |
| 20260506230411 | 15 | 349 | 4.8 | 8.0 | 0.00 | 1.02 | 1.02 | 61 | 1017.7 |
| 20260506225908 | 15 | 134 | 0.0 | 1.6 | 0.00 | 1.02 | 1.02 | 63 | 1017.7 |
| 20260506225405 | 15 | 116 | 0.0 | 3.2 | 0.00 | 1.02 | 1.02 | 59 | 1017.6 |
| 20260506224902 | 15 | 39 | 1.6 | 4.8 | 0.00 | 1.02 | 1.02 | 57 | 1017.6 |
| 20260506224359 | 15 | 284 | 4.8 | 8.0 | 0.00 | 1.02 | 1.02 | 58 | 1017.2 |
| 20260506223855 | 15 | 11 | 3.2 | 3.2 | 0.00 | 1.02 | 1.02 | 60 | 1017.2 |
| 20260506223350 | 16 | 111 | 3.2 | 9.7 | 0.00 | 1.02 | 1.02 | 56 | 1017.3 |
| 20260506222848 | 16 | 177 | 0.0 | 1.6 | 0.00 | 1.02 | 1.02 | 55 | 1017.1 |
| 20260506222344 | 16 | 108 | 0.0 | 0.0 | 0.00 | 1.02 | 1.02 | 57 | 1017.2 |
| 20260506221842 | 16 | 83 | 0.0 | 0.0 | 0.00 | 1.02 | 1.02 | 56 | 1017.0 |
| 20260506221339 | 16 | 79 | 0.0 | 0.0 | 0.00 | 1.02 | 1.02 | 56 | 1017.0 |
| 20260506220836 | 16 | 326 | 1.6 | 4.8 | 0.00 | 1.02 | 1.02 | 51 | 1017.3 |
| 20260506220332 | 16 | 85 | 0.0 | 0.0 | 0.00 | 1.02 | 1.02 | 53 | 1017.0 |
| 20260506215829 | 16 | 262 | 0.0 | 1.6 | 0.00 | 1.02 | 1.02 | 53 | 1017.2 |
| 20260506215324 | 16 | 273 | 1.6 | 4.8 | 0.00 | 1.02 | 1.02 | 52 | 1017.1 |
| 20260506214820 | 16 | 126 | 0.0 | 1.6 | 0.00 | 1.02 | 1.02 | 52 | 1017.1 |
| 20260506214317 | 16 | 95 | 1.6 | 3.2 | 0.00 | 1.02 | 1.02 | 54 | 1017.1 |
| 20260506213816 | 16 | 130 | 0.0 | 8.0 | 0.00 | 1.02 | 1.02 | 55 | 1017.3 |
| 20260506213313 | 16 | 110 | 0.0 | 3.2 | 0.00 | 1.02 | 1.02 | 57 | 1017.1 |
| 20260506212810 | 16 | 344 | 4.8 | 9.7 | 0.00 | 1.02 | 1.02 | 51 | 1017.2 |
| 20260506212307 | 16 | 197 | 0.0 | 0.0 | 0.00 | 1.02 | 1.02 | 53 | 1017.3 |
| 20260506211800 | 16 | 60 | 1.6 | 3.2 | 0.00 | 1.02 | 1.02 | 51 | 1017.6 |
| 20260506211257 | 16 | 216 | 1.6 | 4.8 | 0.00 | 1.02 | 1.02 | 52 | 1017.5 |
| 20260506210754 | 16 | 103 | 0.0 | 1.6 | 0.00 | 1.02 | 1.02 | 50 | 1017.4 |
| 20260506210251 | 17 | 189 | 4.8 | 8.0 | 0.00 | 1.02 | 1.02 | 50 | 1017.5 |
| 20260506205748 | 17 | 110 | 0.0 | 3.2 | 0.00 | 1.02 | 1.02 | 47 | 1017.4 |
| 20260506205244 | 17 | 72 | 1.6 | 4.8 | 0.00 | 1.02 | 1.02 | 47 | 1017.1 |
| 20260506204741 | 17 | 202 | 3.2 | 3.2 | 0.00 | 1.02 | 1.02 | 52 | 1017.6 |
| 20260506204238 | 17 | 127 | 0.0 | 3.2 | 0.00 | 1.02 | 1.02 | 47 | 1017.4 |
| 20260506203736 | 17 | 267 | 3.2 | 8.0 | 0.00 | 1.02 | 1.02 | 50 | 1017.7 |
| 20260506203233 | 17 | 280 | 3.2 | 3.2 | 0.00 | 1.02 | 1.02 | 50 | 1017.6 |
| 20260506202730 | 17 | 284 | 4.8 | 8.0 | 0.00 | 1.02 | 1.02 | 50 | 1017.5 |
| 20260506202227 | 17 | 351 | 4.8 | 9.7 | 0.00 | 1.02 | 1.02 | 54 | 1017.4 |
| 20260506201724 | 17 | 319 | 6.4 | 9.7 | 0.00 | 1.02 | 1.02 | 49 | 1017.3 |
| 20260506201220 | 17 | 114 | 0.0 | 8.0 | 0.00 | 1.02 | 1.02 | 52 | 1017.2 |
| 20260506200717 | 18 | 125 | 1.6 | 3.2 | 0.00 | 1.02 | 1.02 | 52 | 1017.1 |
| 20260506200209 | 17 | 276 | 3.2 | 4.8 | 0.00 | 1.02 | 1.02 | 51 | 1017.4 |
| 20260506195705 | 17 | 24 | 1.6 | 8.0 | 0.00 | 1.02 | 1.02 | 53 | 1017.2 |
| 20260506195201 | 17 | 226 | 1.6 | 4.8 | 0.00 | 1.02 | 1.02 | 49 | 1017.4 |
| 20260506194659 | 18 | 348 | 4.8 | 9.7 | 0.00 | 1.02 | 1.02 | 48 | 1017.3 |
| 20260506194155 | 18 | 170 | 0.0 | 3.2 | 0.00 | 1.02 | 1.02 | 53 | 1017.6 |
| 20260506193653 | 17 | 95 | 1.6 | 9.7 | 0.00 | 1.02 | 1.02 | 54 | 1017.7 |
| 20260506193149 | 17 | 210 | 4.8 | 11.3 | 0.00 | 1.02 | 1.02 | 50 | 1017.8 |
| 20260506192646 | 17 | 64 | 0.0 | 3.2 | 0.00 | 1.02 | 1.02 | 52 | 1017.5 |
| 20260506192142 | 17 | 155 | 1.6 | 8.0 | 0.00 | 1.02 | 1.02 | 53 | 1017.5 |
| 20260506191639 | 17 | 283 | 3.2 | 3.2 | 0.00 | 1.02 | 1.02 | 49 | 1017.5 |
| 20260506191135 | 17 | 53 | 3.2 | 3.2 | 0.00 | 1.02 | 1.02 | 51 | 1017.3 |
| 20260506190633 | 17 | 191 | 1.6 | 8.0 | 0.00 | 1.02 | 1.02 | 49 | 1017.4 |
| 20260506190129 | 17 | 122 | 1.6 | 12.9 | 0.00 | 1.02 | 1.02 | 52 | 1017.5 |
| 20260506185627 | 17 | 123 | 0.0 | 8.0 | 0.00 | 1.02 | 1.02 | 48 | 1017.4 |
| 20260506185123 | 17 | 263 | 4.8 | 9.7 | 0.00 | 1.02 | 1.02 | 50 | 1017.6 |
| 20260506184620 | 17 | 126 | 1.6 | 3.2 | 0.00 | 1.02 | 1.02 | 52 | 1017.6 |
| 20260506184117 | 17 | 144 | 1.6 | 3.2 | 0.00 | 1.02 | 1.02 | 54 | 1017.6 |
| 20260506183614 | 17 | 229 | 3.2 | 4.8 | 0.00 | 1.02 | 1.02 | 53 | 1017.5 |
| 20260506183110 | 16 | 60 | 1.6 | 12.9 | 0.00 | 1.02 | 1.02 | 53 | 1017.4 |
| 20260506182608 | 17 | 178 | 1.6 | 8.0 | 0.00 | 1.02 | 1.02 | 53 | 1017.5 |
| 20260506182105 | 16 | 205 | 1.6 | 3.2 | 0.00 | 1.02 | 1.02 | 52 | 1017.4 |
| 20260506181603 | 16 | 339 | 6.4 | 12.9 | 0.00 | 1.02 | 1.02 | 55 | 1017.3 |
| 20260506181059 | 16 | 9 | 0.0 | 12.9 | 0.00 | 1.02 | 1.02 | 55 | 1017.3 |
| 20260506180556 | 16 | 89 | 1.6 | 14.5 | 0.00 | 1.02 | 1.02 | 58 | 1017.3 |
| 20260506180053 | 16 | 108 | 1.6 | 8.0 | 0.00 | 1.02 | 1.02 | 59 | 1017.1 |
| 20260506175549 | 16 | 254 | 3.2 | 4.8 | 0.00 | 1.02 | 1.02 | 58 | 1017.1 |
| 20260506175045 | 16 | 348 | 4.8 | 11.3 | 0.00 | 1.02 | 1.02 | 60 | 1017.3 |
| 20260506174544 | 16 | 313 | 8.0 | 12.9 | 0.00 | 1.02 | 1.02 | 59 | 1017.1 |
| 20260506174039 | 16 | 213 | 0.0 | 12.9 | 0.00 | 1.02 | 1.02 | 55 | 1017.5 |
| 20260506173538 | 16 | 335 | 4.8 | 8.0 | 0.00 | 1.02 | 1.02 | 58 | 1017.4 |
| 20260506173034 | 16 | 144 | 1.6 | 4.8 | 0.00 | 1.02 | 1.02 | 53 | 1017.3 |
| 20260506172532 | 16 | 146 | 1.6 | 4.8 | 0.00 | 1.02 | 1.02 | 59 | 1017.4 |
| 20260506172028 | 16 | 249 | 3.2 | 9.7 | 0.00 | 1.02 | 1.02 | 58 | 1017.5 |
| 20260506171525 | 16 | 75 | 0.0 | 4.8 | 0.00 | 1.02 | 1.02 | 61 | 1017.9 |
| 20260506171023 | 16 | 151 | 3.2 | 8.0 | 0.00 | 1.02 | 1.02 | 62 | 1017.8 |
| 20260506170520 | 15 | 106 | 1.6 | 4.8 | 0.00 | 1.02 | 1.02 | 58 | 1017.6 |
| 20260506170012 | 15 | 336 | 4.8 | 12.9 | 0.00 | 1.02 | 1.02 | 55 | 1017.7 |
| 20260506165510 | 16 | 345 | 6.4 | 8.0 | 0.00 | 1.02 | 1.02 | 56 | 1017.8 |
| 20260506165006 | 16 | 186 | 4.8 | 4.8 | 0.00 | 1.02 | 1.02 | 56 | 1017.8 |
| 20260506164503 | 15 | 125 | 0.0 | 3.2 | 0.00 | 1.02 | 1.02 | 57 | 1017.7 |
| 20260506164000 | 15 | 126 | 3.2 | 9.7 | 0.00 | 1.02 | 1.02 | 57 | 1017.8 |
| 20260506163456 | 16 | 121 | 3.2 | 3.2 | 0.00 | 1.02 | 1.02 | 54 | 1018.1 |
| 20260506162950 | 15 | 183 | 4.8 | 9.7 | 0.00 | 1.02 | 1.02 | 61 | 1018.0 |
| 20260506162448 | 15 | 302 | 3.2 | 8.0 | 0.00 | 1.02 | 1.02 | 61 | 1018.0 |
| 20260506161945 | 15 | 355 | 8.0 | 11.3 | 0.00 | 1.02 | 1.02 | 62 | 1017.8 |
| 20260506161443 | 15 | 193 | 4.8 | 8.0 | 0.00 | 1.02 | 1.02 | 60 | 1017.9 |
| 20260506160940 | 15 | 124 | 3.2 | 4.8 | 0.00 | 1.02 | 1.02 | 65 | 1018.0 |
| 20260506160438 | 15 | 109 | 1.6 | 9.7 | 0.00 | 1.02 | 1.02 | 62 | 1018.0 |
| 20260506155935 | 15 | 243 | 4.8 | 11.3 | 0.00 | 1.02 | 1.02 | 65 | 1017.9 |
| 20260506155433 | 15 | 342 | 6.4 | 9.7 | 0.00 | 1.02 | 1.02 | 62 | 1018.2 |
| 20260506153559 | 14 | 200 | 4.8 | 8.0 | 0.00 | 1.02 | 1.02 | 64 | 1017.7 |
| 20260506153057 | 15 | 209 | 3.2 | 9.7 | 0.00 | 1.02 | 1.02 | 62 | 1017.5 |
| 20260506152553 | 14 | 197 | 1.6 | 8.0 | 0.00 | 1.02 | 1.02 | 66 | 1017.4 |
| 20260506152052 | 14 | 65 | 3.2 | 8.0 | 0.00 | 1.02 | 1.02 | 65 | 1017.4 |
| 20260506151549 | 14 | 153 | 3.2 | 4.8 | 0.00 | 1.02 | 1.02 | 62 | 1017.2 |
| 20260506151046 | 15 | 33 | 1.6 | 3.2 | 0.00 | 1.02 | 1.02 | 67 | 1017.3 |
| 20260506150542 | 13 | 246 | 1.6 | 11.3 | 0.00 | 1.02 | 1.02 | 66 | 1017.4 |
| 20260506150040 | 13 | 297 | 3.2 | 4.8 | 0.00 | 1.02 | 1.02 | 70 | 1017.4 |
| 20260506145536 | 13 | 250 | 3.2 | 8.0 | 0.00 | 1.02 | 1.02 | 67 | 1017.3 |
| 20260506145034 | 13 | 302 | 3.2 | 8.0 | 0.00 | 1.02 | 1.02 | 69 | 1017.1 |
| 20260506144530 | 13 | 86 | 0.0 | 3.2 | 0.00 | 1.02 | 1.02 | 68 | 1017.2 |
| 20260506144028 | 13 | 190 | 0.0 | 8.0 | 0.00 | 1.02 | 1.02 | 71 | 1017.3 |
| 20260506143525 | 12 | 340 | 3.2 | 4.8 | 0.00 | 1.02 | 1.02 | 69 | 1017.2 |
| 20260506143024 | 13 | 346 | 4.8 | 12.9 | 0.00 | 1.02 | 1.02 | 70 | 1017.2 |
| 20260506142521 | 13 | 138 | 0.0 | 3.2 | 0.00 | 1.02 | 1.02 | 69 | 1017.0 |
| 20260506142019 | 13 | 323 | 3.2 | 4.8 | 0.00 | 1.02 | 1.02 | 73 | 1017.2 |
| 20260506141517 | 12 | 193 | 1.6 | 3.2 | 0.00 | 1.02 | 1.02 | 72 | 1016.9 |
| 20260506141015 | 12 | 125 | 0.0 | 3.2 | 0.00 | 1.02 | 1.02 | 75 | 1016.7 |
| 20260506140512 | 12 | 82 | 1.6 | 3.2 | 0.00 | 1.02 | 1.02 | 77 | 1016.9 |
| 20260506140009 | 11 | 127 | 0.0 | 4.8 | 0.00 | 1.02 | 1.02 | 78 | 1016.5 |
| 20260506135506 | 11 | 2 | 6.4 | 9.7 | 0.00 | 1.02 | 1.02 | 77 | 1016.7 |
| 20260506135002 | 11 | 70 | 1.6 | 3.2 | 0.00 | 1.02 | 1.02 | 77 | 1016.9 |
| 20260506134458 | 11 | 168 | 0.0 | 1.6 | 0.00 | 1.02 | 1.02 | 80 | 1016.6 |
| 20260506133954 | 11 | 110 | 3.2 | 8.0 | 0.00 | 1.02 | 1.02 | 82 | 1016.7 |
| 20260506133452 | 10 | 215 | 1.6 | 3.2 | 0.00 | 1.02 | 1.02 | 85 | 1016.6 |
| 20260506132948 | 10 | 240 | 1.6 | 3.2 | 0.00 | 1.02 | 1.02 | 88 | 1016.6 |
| 20260506132445 | 9 | 308 | 1.6 | 4.8 | 0.00 | 1.02 | 1.02 | 91 | 1016.4 |
| 20260506131943 | 9 | 24 | 3.2 | 4.8 | 0.00 | 1.02 | 1.02 | 94 | 1016.3 |
| 20260506131439 | 8 | 206 | 0.0 | 1.6 | 0.00 | 1.02 | 1.02 | 96 | 1016.5 |
| 20260506130936 | 8 | 6 | 0.0 | 1.6 | 0.00 | 1.02 | 1.02 | 98 | 1016.4 |
| 20260506130433 | 8 | 117 | 0.0 | 1.6 | 0.00 | 1.02 | 1.02 | 99 | 1016.4 |
| 20260506125931 | 8 | 71 | 3.2 | 4.8 | 0.00 | 1.02 | 1.02 | 99 | 1016.1 |
| 20260506125429 | 8 | 228 | 3.2 | 4.8 | 0.00 | 1.02 | 1.02 | 99 | 1016.2 |
| 20260506124927 | 7 | 118 | 0.0 | 4.8 | 0.00 | 1.02 | 1.02 | 99 | 1016.2 |
| 20260506124424 | 8 | 345 | 0.0 | 3.2 | 0.00 | 1.02 | 1.02 | 99 | 1016.5 |
| 20260506123922 | 7 | 49 | 1.6 | 4.8 | 0.00 | 1.02 | 1.02 | 99 | 1016.4 |
| 20260506123420 | 8 | 212 | 1.6 | 4.8 | 0.00 | 1.02 | 1.02 | 99 | 1016.1 |
| 20260506122917 | 7 | 92 | 1.6 | 1.6 | 0.00 | 1.02 | 1.02 | 99 | 1016.1 |
| 20260506122413 | 7 | 225 | 1.6 | 8.0 | 0.00 | 1.02 | 1.02 | 99 | 1016.0 |
| 20260506121912 | 7 | 143 | 1.6 | 3.2 | 0.00 | 1.02 | 1.02 | 99 | 1016.0 |
| 20260506121408 | 7 | 265 | 1.6 | 1.6 | 0.00 | 1.02 | 1.02 | 99 | 1015.9 |
| 20260506120905 | 7 | 15 | 1.6 | 4.8 | 0.00 | 1.02 | 1.02 | 99 | 1016.1 |
| 20260506120403 | 7 | 228 | 0.0 | 1.6 | 0.00 | 1.02 | 1.02 | 99 | 1016.3 |
| 20260506115900 | 7 | 120 | 0.0 | 3.2 | 0.00 | 1.02 | 1.02 | 99 | 1016.0 |
| 20260506115358 | 7 | 138 | 0.0 | 1.6 | 0.00 | 1.02 | 1.02 | 99 | 1016.2 |
| 20260506114856 | 7 | 119 | 0.0 | 1.6 | 0.00 | 1.02 | 1.02 | 99 | 1016.3 |
| 20260506114353 | 7 | 93 | 1.6 | 3.2 | 0.00 | 1.02 | 1.02 | 99 | 1016.0 |
| 20260506113853 | 7 | 101 | 0.0 | 1.6 | 0.00 | 1.02 | 1.02 | 99 | 1015.5 |
| 20260506113349 | 7 | 86 | 0.0 | 3.2 | 0.00 | 1.02 | 1.02 | 99 | 1015.4 |
| 20260506112846 | 7 | 197 | 0.0 | 3.2 | 0.00 | 1.02 | 1.02 | 99 | 1015.6 |
| 20260506112343 | 7 | 57 | 1.6 | 4.8 | 0.00 | 1.02 | 1.02 | 99 | 1015.3 |
| 20260506111840 | 7 | 11 | 1.6 | 8.0 | 0.00 | 1.02 | 1.02 | 99 | 1015.2 |
| 20260506111338 | 7 | 118 | 1.6 | 3.2 | 0.00 | 1.02 | 1.02 | 99 | 1015.0 |
| 20260506110836 | 7 | 113 | 0.0 | 0.0 | 0.00 | 1.02 | 1.02 | 99 | 1015.1 |
| 20260506110333 | 7 | 169 | 0.0 | 3.2 | 0.00 | 1.02 | 1.02 | 99 | 1015.2 |
| 20260506105830 | 7 | 65 | 1.6 | 4.8 | 0.00 | 1.02 | 1.02 | 99 | 1015.1 |
| 20260506105326 | 7 | 141 | 1.6 | 1.6 | 0.00 | 1.02 | 1.02 | 99 | 1014.7 |
| 20260506104823 | 7 | 134 | 0.0 | 4.8 | 0.00 | 1.02 | 1.02 | 99 | 1014.4 |
| 20260506104321 | 7 | 76 | 1.6 | 1.6 | 0.00 | 1.02 | 1.02 | 99 | 1014.5 |
| 20260506103818 | 7 | 122 | 0.0 | 3.2 | 0.00 | 1.02 | 1.02 | 99 | 1014.5 |
| 20260506103316 | 7 | 124 | 0.0 | 4.8 | 0.00 | 1.02 | 1.02 | 99 | 1014.4 |
| 20260506102813 | 7 | 87 | 1.6 | 8.0 | 0.00 | 1.02 | 1.02 | 99 | 1014.3 |
| 20260506102311 | 7 | 41 | 3.2 | 11.3 | 0.00 | 1.02 | 1.02 | 99 | 1014.2 |
| 20260506101808 | 7 | 63 | 1.6 | 4.8 | 0.00 | 1.02 | 1.02 | 99 | 1014.2 |
| 20260506101304 | 7 | 254 | 1.6 | 8.0 | 0.00 | 1.02 | 1.02 | 99 | 1013.9 |
| 20260506100802 | 7 | 271 | 3.2 | 4.8 | 0.00 | 1.02 | 1.02 | 99 | 1014.3 |
| 20260506100300 | 7 | 206 | 0.0 | 4.8 | 0.00 | 1.02 | 1.02 | 99 | 1013.9 |
| 20260506095758 | 7 | 131 | 0.0 | 3.2 | 0.00 | 1.02 | 1.02 | 99 | 1013.3 |
| 20260506095255 | 7 | 133 | 1.6 | 4.8 | 0.00 | 1.02 | 1.02 | 99 | 1013.8 |
| 20260506094751 | 7 | 55 | 4.8 | 9.7 | 0.00 | 1.02 | 1.02 | 99 | 1014.0 |
| 20260506094250 | 7 | 283 | 3.2 | 4.8 | 0.00 | 1.02 | 1.02 | 99 | 1013.8 |
| 20260506093748 | 7 | 100 | 1.6 | 4.8 | 0.00 | 1.02 | 1.02 | 99 | 1013.8 |
| 20260506093245 | 7 | 293 | 3.2 | 4.8 | 0.00 | 1.02 | 1.02 | 99 | 1013.5 |
| 20260506092743 | 7 | 141 | 0.0 | 8.0 | 0.00 | 1.02 | 1.02 | 99 | 1013.6 |
| 20260506092241 | 7 | 333 | 1.6 | 4.8 | 0.00 | 1.02 | 1.02 | 99 | 1013.4 |
| 20260506091737 | 7 | 166 | 0.0 | 1.6 | 0.00 | 1.02 | 1.02 | 99 | 1013.4 |
| 20260506091235 | 7 | 96 | 0.0 | 4.8 | 0.00 | 1.02 | 1.02 | 99 | 1013.2 |
| 20260506090733 | 7 | 109 | 0.0 | 1.6 | 0.00 | 1.02 | 1.02 | 99 | 1013.1 |
| 20260506090229 | 7 | 64 | 1.6 | 4.8 | 0.00 | 1.02 | 1.02 | 99 | 1013.1 |
| 20260506085726 | 8 | 101 | 3.2 | 8.0 | 0.00 | 1.02 | 1.02 | 99 | 1012.9 |
| 20260506085222 | 8 | 115 | 3.2 | 8.0 | 0.00 | 1.02 | 1.02 | 99 | 1012.8 |
| 20260506084719 | 8 | 146 | 0.0 | 1.6 | 0.00 | 1.02 | 1.02 | 99 | 1012.8 |
| 20260506084215 | 8 | 351 | 3.2 | 4.8 | 0.00 | 1.02 | 1.02 | 99 | 1012.9 |
| 20260506083713 | 8 | 72 | 3.2 | 4.8 | 0.00 | 1.02 | 1.02 | 99 | 1013.2 |
| 20260506083210 | 8 | 353 | 8.0 | 9.7 | 0.00 | 1.02 | 1.02 | 99 | 1013.3 |
| 20260506082707 | 9 | 86 | 1.6 | 4.8 | 0.00 | 1.02 | 1.02 | 99 | 1013.0 |
| 20260506082203 | 9 | 290 | 4.8 | 8.0 | 0.00 | 1.02 | 1.02 | 99 | 1013.0 |
| 20260506081701 | 9 | 49 | 0.0 | 3.2 | 0.00 | 1.02 | 1.02 | 99 | 1012.6 |
| 20260506081158 | 9 | 300 | 6.4 | 14.5 | 0.00 | 1.02 | 1.02 | 99 | 1012.5 |
| 20260506080656 | 9 | 319 | 1.6 | 4.8 | 0.00 | 1.02 | 1.02 | 99 | 1012.2 |
| 20260506080152 | 9 | 216 | 3.2 | 4.8 | 0.00 | 1.02 | 1.02 | 99 | 1012.2 |
| 20260506073136 | 10 | 347 | 6.4 | 8.0 | 0.13 | 0.97 | 0.97 | 99 | 1011.9 |
| 20260506072633 | 10 | 102 | 3.2 | 8.0 | 0.30 | 0.97 | 0.97 | 99 | 1011.8 |
| 20260506072131 | 10 | 111 | 1.6 | 9.7 | 0.48 | 0.94 | 0.94 | 99 | 1011.9 |
| 20260506071628 | 10 | 80 | 3.2 | 9.7 | 0.30 | 0.91 | 0.91 | 99 | 1011.8 |
| 20260506071126 | 10 | 256 | 4.8 | 12.9 | 0.00 | 0.86 | 0.86 | 99 | 1011.9 |
| 20260506070622 | 10 | 72 | 1.6 | 9.7 | 0.00 | 0.86 | 0.86 | 99 | 1011.6 |
| 20260506070119 | 10 | 100 | 1.6 | 3.2 | 0.00 | 0.86 | 0.86 | 99 | 1011.5 |
| 20260506062057 | 10 | 99 | 1.6 | 4.8 | 0.18 | 0.81 | 0.81 | 99 | 1011.3 |
| 20260506061552 | 10 | 127 | 0.0 | 9.7 | 0.13 | 0.79 | 0.79 | 99 | 1011.4 |
| 20260506061050 | 10 | 351 | 3.2 | 9.7 | 0.30 | 0.79 | 0.79 | 99 | 1011.2 |
| 20260506060549 | 10 | 97 | 6.4 | 16.1 | 0.18 | 0.76 | 0.76 | 99 | 1011.5 |
| 20260506051017 | 10 | 39 | 1.6 | 4.8 | 0.61 | 0.56 | 0.56 | 99 | 1010.9 |
| 20260506050515 | 11 | 112 | 0.0 | 8.0 | 0.18 | 0.48 | 0.48 | 99 | 1011.2 |
| 20260506045005 | 11 | 114 | 3.2 | 9.7 | 0.13 | 0.46 | 0.46 | 99 | 1010.8 |
| 20260506044503 | 11 | 126 | 1.6 | 3.2 | 0.18 | 0.43 | 0.43 | 99 | 1010.9 |
| 20260506043959 | 11 | 138 | 3.2 | 11.3 | 0.30 | 0.43 | 0.43 | 99 | 1010.7 |
| 20260506043456 | 11 | 346 | 3.2 | 3.2 | 0.43 | 0.41 | 0.41 | 99 | 1010.7 |
| 20260506042954 | 11 | 119 | 3.2 | 4.8 | 0.61 | 0.38 | 0.38 | 99 | 1010.7 |
| 20260506042449 | 12 | 141 | 1.6 | 8.0 | 0.66 | 0.33 | 0.33 | 99 | 1010.9 |
| 20260506041946 | 12 | 134 | 3.2 | 11.3 | 0.66 | 0.28 | 0.28 | 99 | 1010.8 |
| 20260506041444 | 14 | 87 | 3.2 | 8.0 | 0.71 | 0.23 | 0.23 | 99 | 1010.6 |
| 20260506040941 | 15 | 107 | 0.0 | 0.0 | 1.02 | 0.18 | 0.18 | 99 | 1010.5 |
| 20260506040438 | 15 | 126 | 0.0 | 1.6 | 0.61 | 0.08 | 0.08 | 99 | 1010.6 |
| 20260506035934 | 15 | 127 | 0.0 | 4.8 | 0.48 | 2.31 | 2.31 | 99 | 1010.3 |
| 20260506035432 | 15 | 131 | 0.0 | 3.2 | 0.89 | 2.26 | 2.26 | 99 | 1010.6 |
| 20260506034928 | 15 | 144 | 1.6 | 1.6 | 1.02 | 2.21 | 2.21 | 99 | 1010.6 |
| 20260506034426 | 15 | 185 | 0.0 | 1.6 | 1.50 | 2.11 | 2.11 | 99 | 1010.5 |
| 20260506033923 | 15 | 127 | 0.0 | 3.2 | 0.43 | 1.93 | 1.93 | 99 | 1010.4 |
| 20260506033420 | 15 | 139 | 1.6 | 3.2 | 0.18 | 1.85 | 1.85 | 99 | 1010.3 |
| 20260506032917 | 15 | 128 | 0.0 | 3.2 | 0.00 | 1.83 | 1.83 | 99 | 1010.3 |
| 20260506032414 | 15 | 126 | 4.8 | 8.0 | 0.13 | 1.83 | 1.83 | 99 | 1010.5 |
| 20260506031910 | 15 | 242 | 1.6 | 12.9 | 0.13 | 1.83 | 1.83 | 99 | 1010.3 |
| 20260506031408 | 15 | 123 | 3.2 | 9.7 | 0.30 | 1.80 | 1.80 | 99 | 1010.3 |
| 20260506030905 | 15 | 137 | 4.8 | 16.1 | 0.48 | 1.80 | 1.80 | 99 | 1010.4 |
| 20260506030403 | 16 | 144 | 3.2 | 9.7 | 0.18 | 1.75 | 1.75 | 99 | 1010.7 |
| 20260506025859 | 16 | 193 | 1.6 | 4.8 | 0.00 | 1.73 | 1.73 | 99 | 1010.5 |
| 20260506025356 | 16 | 177 | 1.6 | 11.3 | 0.00 | 1.73 | 1.73 | 99 | 1010.5 |
| 20260506024854 | 16 | 61 | 1.6 | 11.3 | 0.00 | 1.73 | 1.73 | 99 | 1010.5 |
| 20260506024351 | 16 | 342 | 3.2 | 11.3 | 0.13 | 1.73 | 1.73 | 99 | 1010.5 |
| 20260506023846 | 16 | 151 | 3.2 | 11.3 | 0.00 | 1.70 | 1.70 | 99 | 1010.5 |
| 20260506023343 | 16 | 41 | 4.8 | 11.3 | 0.18 | 1.70 | 1.70 | 99 | 1010.4 |
| 20260506022840 | 16 | 156 | 4.8 | 16.1 | 0.18 | 1.70 | 1.70 | 99 | 1010.7 |
| 20260506022338 | 16 | 116 | 1.6 | 11.3 | 0.13 | 1.68 | 1.68 | 99 | 1011.0 |
| 20260506021836 | 16 | 163 | 4.8 | 8.0 | 0.13 | 1.68 | 1.68 | 99 | 1010.7 |
| 20260506021332 | 16 | 108 | 4.8 | 12.9 | 0.00 | 1.65 | 1.65 | 99 | 1010.7 |